Weather History for West Palm Beach, FL

Change the Weather History Date:

Tuesday, November 2, 2010

  Actual Average Record
Temperature  
Mean Temperature 82 °F 75 °F  
Max Temperature 86 °F 82 °F 92 °F (1919)
Min Temperature 78 °F 68 °F 51 °F (1993)
Degree Days  
Heating Degree Days 0 0  
Month to date heating degree days 0 0  
Since 1 July heating degree days 0 1  
Cooling Degree Days 17 10  
Month to date cooling degree days 34 20  
Year to date cooling degree days 3802 3641  
Growing Degree Days 32 (Base 50)    
Moisture  
Dew Point 65 °F    
Average Humidity 58    
Maximum Humidity 67    
Minimum Humidity 48    
Precipitation  
Precipitation 0.00 in 0.18 in 2.52 in (1925)
Month to date precipitation 0.00 0.35  
Year to date precipitation 50.71 54.55  
Snow  
Snow 0.00 in - - ()
Month to date snowfall 0.0  
Since 1 July snowfall 0.0  
Since 1 September snowfall 0.0  
Snow Depth 0.00 in    
Sea Level Pressure  
Sea Level Pressure 30.04 in    
Wind  
Wind Speed 11 mph (East)    
Max Wind Speed 17 mph    
Max Gust Speed 23 mph    
Visibility 10 miles    
Events      
T = Trace of Precipitation, MM = Missing Value Source: NWS Daily Summary

Daily Weather History Graph

Daily Weather History Graph

Search for Another Location

Airport:

Trip Planner

Search our weather history database for the weather conditions in past years. The results will help you decide how hot, cold, wet, or windy it might be!

Date:

Astronomy

Nov. 02, 2010 Rise Set
Actual Time 7:30 AM EDT 6:36 PM EDT
Civil Twilight 7:06 AM EDT 7:00 PM EDT
Nautical Twilight 6:39 AM EDT 7:28 PM EDT
Astronomical Twilight 6:11 AM EDT 7:55 PM EDT
Moon 3:36 AM EDT (11/2) 3:57 PM EDT (11/2)
Length of Visible Light 11h 54m
Length of Day
11h 06m
Waning Crescent, 17% of the Moon is Illuminated
Nov 2
Waning Crescent
Nov 6
New
Nov 13
First Quarter
Nov 21
Full
Nov 28
Last Quarter

Hourly Weather History & Observations

Time (EDT) Temp. Heat Index Dew Point Humidity Pressure Visibility Wind Dir Wind Speed Gust Speed Precip Events Conditions
12:53 AM 80.1 °F 82.1 °F 66.0 °F 62% 30.11 in 10.0 mi East 9.2 mph - N/A   Overcast
1:53 AM 80.1 °F 82.3 °F 66.9 °F 64% 30.09 in 10.0 mi East 9.2 mph - N/A   Overcast
2:53 AM 80.1 °F 82.3 °F 66.9 °F 64% 30.07 in 10.0 mi East 8.1 mph - N/A   Overcast
3:53 AM 79.0 °F - 66.0 °F 64% 30.06 in 10.0 mi East 9.2 mph - N/A   Overcast
4:53 AM 79.0 °F - 66.0 °F 64% 30.06 in 10.0 mi East 6.9 mph - N/A   Mostly Cloudy
5:53 AM 78.1 °F - 66.9 °F 68% 30.06 in 10.0 mi East 6.9 mph - N/A   Mostly Cloudy
6:53 AM 78.1 °F - 64.9 °F 64% 30.06 in 10.0 mi East 6.9 mph - N/A   Mostly Cloudy
7:53 AM 79.0 °F - 64.9 °F 62% 30.07 in 10.0 mi East 9.2 mph - N/A   Mostly Cloudy
8:53 AM 80.1 °F 82.1 °F 66.0 °F 62% 30.09 in 10.0 mi East 13.8 mph - N/A   Mostly Cloudy
9:53 AM 82.0 °F 84.1 °F 66.0 °F 58% 30.09 in 10.0 mi East 16.1 mph - N/A   Scattered Clouds
10:53 AM 84.0 °F 86.3 °F 66.0 °F 55% 30.09 in 10.0 mi ESE 16.1 mph - N/A   Scattered Clouds
11:53 AM 84.0 °F 85.8 °F 64.9 °F 53% 30.08 in 10.0 mi East 16.1 mph - N/A   Scattered Clouds
12:53 PM 84.9 °F 86.1 °F 64.0 °F 49% 30.06 in 10.0 mi East 15.0 mph 21.9 mph N/A   Scattered Clouds
1:53 PM 86.0 °F 87.3 °F 64.0 °F 48% 30.03 in 10.0 mi East 10.4 mph 18.4 mph N/A   Mostly Cloudy
2:53 PM 82.9 °F 84.4 °F 64.0 °F 53% 30.01 in 10.0 mi East 13.8 mph - N/A   Mostly Cloudy
3:53 PM 82.9 °F 84.4 °F 64.0 °F 53% 29.99 in 10.0 mi East 13.8 mph - N/A   Scattered Clouds
4:53 PM 82.0 °F 83.4 °F 64.0 °F 54% 29.98 in 10.0 mi East 11.5 mph - N/A   Scattered Clouds
5:53 PM 81.0 °F 82.7 °F 64.9 °F 58% 29.98 in 10.0 mi East 9.2 mph - N/A   Scattered Clouds
6:53 PM 80.1 °F 81.9 °F 64.9 °F 60% 29.98 in 10.0 mi East 10.4 mph - N/A   Partly Cloudy
7:53 PM 80.1 °F 82.1 °F 66.0 °F 62% 29.99 in 10.0 mi East 9.2 mph - N/A   Scattered Clouds
8:53 PM 79.0 °F - 64.9 °F 62% 30.00 in 10.0 mi East 9.2 mph - N/A   Partly Cloudy
9:53 PM 78.1 °F - 66.0 °F 66% 30.01 in 10.0 mi East 6.9 mph - N/A   Partly Cloudy
10:53 PM 79.0 °F - 66.9 °F 66% 30.01 in 10.0 mi East 9.2 mph - N/A   Partly Cloudy
11:53 PM 79.0 °F - 66.9 °F 66% 30.00 in 10.0 mi East 9.2 mph - N/A   Scattered Clouds